Tracking 31027 objects as of 19-Jul-2025
HD Live streaming from Space Station
objects crossing your sky now

H-2A R/B(2)

Track H-2A R/B(2) now!


NORAD ID: 27518
Int'l Code: 2002-042D
Perigee: 440.4 km
Apogee: 34,258.0 km
Inclination: 28.9 °
Period: 605.9 minutes
Semi major axis: 23720 km
RCS: 24.23 m2 (large)
Launch date: September 10, 2002
Source: Japan (JPN)
Launch site: TANEGASHIMA SPACE CENTER (TNSTA)

Note: This is a ROCKET BODY
Your satellite tracking list
Your tracking list is empty




NASA's NSSDC Master Catalog

Two Line Element Set (TLE):
1 27518U 02042D   25199.31814598 -.00000020  00000-0  39608-3 0  9998
2 27518  28.9371 330.3478 7128447  93.1009 343.1459  2.37643696197437
Source of the keplerian elements: AFSPC